Погода в Восходе

Россия / Владимирская область     56°05′27″N   41°32′09″E
темп.,
°C
ветер,
м/с
пор.,
м/с
влажн.,
%
обл.,
%
осадки,
мм/ч
давл.,
гПа
погр.,
м
26 февраля, пт
пт2600:00−1зсз1599100 0.2 1012253
03:00−1зюз0199100 0.3 101265
06:00−4юв3497100 0.5 1010126
09:00−2юв4897100 2.4 1006250
12:00+2зюз412100100 2.3 1003476
15:00+3зюз514100100 3.2 999474
18:00+3з6159694 3.0 997914
21:00+1з6149289 3.0 997905
27 февраля, сб
сб2700:00+1з61397100 0.9 995846
03:00+1зсз61297100 2.1 996862
06:00−7сз71392100 0.9 997532
09:00−10ссз61189100 1.3 1001690
12:00−10ссз51087100 0.1 1005701
15:00−10ссз5987100 0.3 1008680
18:00−11ссз4891100 0.1 1009623
21:00−13ссз3895100 0.1 1012320
28 февраля, вс
вс2800:00−14ссз269786 0.0 1013161
03:00−16ссз249759 0.1 101599
06:00−17ссз239747 0.0 101578
09:00−14ссз249364 0.1 1016257
12:00−10ссз248693 0.1 1016499
15:00−8ссз248897 0.1 1016568
18:00−11ссз1195100 0.1 101721
21:00−12ссв1197100 0.1 101921
1 марта, пн
пн100:00−14с019786 0.0 102120
03:00−14юз119782 0.1 102220
06:00−14зюз129775 0.0 102220
09:00−10зюз129478 0.0 102387
12:00−5ююз249188 0.0 1022354
15:00−2зюз469092 0.1 1020656
18:00−3юз4995100 0.1 1017490
21:00−2юз51196100 0.6 1014506
2 марта, вт
вт200:00−1зюз51196100 1.2 1011511
03:00+1зсз51197100 2.3 1009589
06:000зсз51097100 0.9 1007650
09:000сз5994100 1.6 1007804
12:00+1зсз6119858 0.1 1006816
15:000сз5109878 0.5 1006748
18:00−1сз4119190 0.3 1007661
21:00−2сз4109591 0.5 1008649